Flag for Canada Weather past 2 weeks in Mississauga, Ontario, Canada

Now
66 °F

Low clouds.


Feels Like: 66 °F
Forecast: 66 / 76 °F
Wind: No wind

Location: Toronto Pearson International Airport

Current Time: Aug 21, 2014 at 4:23:37 AM

Latest Report: Aug 21, 2014 at 4:00 AM


Visibility: 8 mi

Pressure: 29.91 "Hg

Humidity: 94%

Dew point: 64 °F

Location of MississaugaLocation

Historic Weather in Mississauga — Graph

°F

Mississauga temperature yesterday

Maximum temperature yesterday: 75 °F (at 2:00 PM)
Minimum temperature yesterday: 63 °F (at 5:00 AM)
Average temperature yesterday: 68 °F

Past Weeks' High & Low Weather Summary

 TemperatureHumidityPressure
High82 °F (Aug 11, 3:00 PM)94% (Aug 6, 4:00 AM)30.19 "Hg (Aug 6, 4:00 AM)
Low54 °F (Aug 14, 5:00 AM)36% (Aug 7, 5:00 PM)29.67 "Hg (Aug 12, 4:00 PM)
Average67 °F69%29.95 "Hg
* Reported Aug 6 3:00 AM — Aug 21 3:00 AM, Mississauga, Weather by CustomWeather, © 2014

Note: Actual official high and low records may vary slightly from our data, if they occured in-between our weather recording intervals... More about our weather records

Advertising

Mississauga weather history for previous 24 hours

 ConditionsComfort  
Time TempWeatherWind HumidityBarometerVisibility
3:00 AM
Aug 21
66 °FLow clouds.No wind94%29.91 "Hg8 mi
2:00 AM66 °FMostly cloudy.No wind94%29.91 "Hg8 mi
1:00 AM66 °FPassing clouds.3 mph94%29.93 "Hg8 mi
12:00 AM66 °FPartly cloudy.5 mph94%29.92 "Hg8 mi
11:00 PM
Aug 20
66 °FPartly cloudy.6 mph94%29.91 "Hg10 mi
10:00 PM68 °FMostly cloudy.2 mph88%29.91 "Hg10 mi
9:45 PM68 °FSprinkles. Mostly cloudy.3 mph88%29.90 "Hg10 mi
9:00 PM68 °FLots of rain. More clouds than sun.6 mph88%29.91 "Hg7 mi
8:00 PM72 °FMore clouds than sun.13 mph73%29.89 "Hg15 mi
7:00 PM72 °FMostly cloudy.12 mph73%29.89 "Hg15 mi
6:00 PM72 °FMore clouds than sun.13 mph78%29.90 "Hg15 mi
5:00 PM75 °FBroken clouds.9 mph74%29.89 "Hg15 mi
4:00 PM75 °FBroken clouds.12 mph69%29.88 "Hg15 mi
3:00 PM73 °FPartly sunny.9 mph78%29.89 "Hg15 mi
2:00 PM75 °FPartly sunny.7 mph74%29.89 "Hg15 mi
1:00 PM72 °FCloudy.8 mph78%29.90 "Hg12 mi
12:00 PM72 °FPartly sunny.6 mph83%29.89 "Hg12 mi
11:00 AM68 °FPartly sunny.3 mph88%29.89 "Hg15 mi
10:00 AM64 °FSprinkles. Cloudy.3 mph94%29.90 "Hg10 mi
9:00 AM64 °FMore clouds than sun.5 mph88%29.88 "Hg15 mi
8:00 AM64 °FMostly cloudy.5 mph83%29.87 "Hg15 mi
7:00 AM64 °FMostly cloudy.3 mph83%29.86 "Hg15 mi
6:00 AM64 °FPassing clouds.6 mph83%29.85 "Hg15 mi
5:00 AM63 °FPartly cloudy.5 mph88%29.83 "Hg15 mi
4:00 AM64 °FPartly cloudy.3 mph83%29.83 "Hg15 mi
Weather by CustomWeather, © 2014

See weather overviewHow to use our weather pages